[[{"header":{"parameterUnit":"m.s-1","parameterCategory":2,"la1":30.2992,"la2":30.254,"lo1":-89.0895,"lo2":-89.0443,"dy":0.0025,"dx":0.0025,"nx":19,"ny":19,"refTime":"2026-04-23T21:00:00:Z","depth":"0","parameterNumber":2,"parameterNumberName":"U-component_of_CURRENTS"},"data":[0,0,0,0.0542,0.0545,0.0622,0.0622,0.0708,0.071,0,0,0,0,0,0,0,0,0,0,0,0.0514,0.0516,0.0542,0.0546,0.0622,0.0622,0.0708,0.071,0,0,0,0,0,0,0,0,0,0,0,0.0513,0.0515,0.0517,0.0546,0.0622,0.0622,0.0708,0.0642,0,0,0,0,0,0,0,0,0,0,0.0565,0.0571,0.0515,0.0517,0.0547,0.0622,0.0622,0.0639,0.0647,0.0684,0,0.0731,0,0.0745,0.0719,0.072,0,0,0,0.0502,0.0565,0.0582,0.0518,0.0548,0.0622,0.0575,0.0643,0.0652,0.0694,0.0733,0.0736,0.0747,0.072,0.0721,0.1031,0.1033,0,0,0.0498,0.0523,0.0576,0.0589,0.0616,0.0573,0.0578,0.0648,0.068,0.0733,0.0738,0.0748,0.0721,0.0722,0.1029,0.1032,0,0,0,0.0515,0.0521,0.0535,0.0585,0.0613,0.0577,0.0582,0.0676,0.0682,0.0739,0.0749,0.0722,0.0724,0.1026,0.103,0.117,0,0,0,0.051,0.0533,0.0534,0.0548,0.0613,0.0653,0.0609,0.0676,0.0685,0.0749,0.0722,0.0725,0.1024,0.1028,0.1161,0.1147,0,0,0,0.0502,0.0532,0.0554,0.055,0.0602,0.0652,0.0659,0.0677,0.0693,0.072,0.0725,0.1022,0.1027,0.1152,0.1136,0.119,0,0,0,0.0502,0.0634,0.0556,0.0691,0.0602,0.0755,0.0658,0.0753,0.0793,0.0723,0.1024,0.103,0.1149,0.1129,0.1184,0.1136,0.1161,0,0,0.0675,0.0656,0.0728,0.0661,0.0819,0.0738,0.0925,0.0913,0.0889,0.0986,0.0993,0.1164,0.1135,0.1189,0.1457,0.1472,0,0,0,0.0785,0.0829,0.0873,0.0925,0.0989,0.1029,0.1046,0.1077,0.1155,0.0948,0.1238,0.1215,0.1244,0.1206,0.122,0.1287,0.1055,0.1055,0.1054,0.1055,0.1015,0.1124,0.1107,0.1193,0.1257,0.1315,0.1358,0.1339,0.1418,0.1388,0.1595,0.1565,0.1573,0.1648,0.1495,0.1496,0.1496,0.1496,0.124,0.1241,0.1224,0.1296,0.1321,0.1446,0.1552,0.1556,0.1674,0.1614,0.1637,0.1428,0.1595,0.167,0.1507,0.1505,0.1504,0.1503,0.1502,0.1311,0.1294,0.131,0.1343,0.1435,0.1504,0.159,0.1671,0.1743,0.18,0.1715,0.1711,0.1714,0.1815,0.1815,0.1816,0.1816,0.1816,0.1816,0.1332,0.1344,0.1338,0.1389,0.1405,0.1472,0.16,0.1673,0.1777,0.1824,0.1824,0.1824,0.169,0.1605,0.1821,0.182,0.1819,0.1819,0.1819,0.1315,0.1309,0.1299,0.1301,0.1351,0.1387,0.1515,0.1652,0.1761,0.1813,0.195,0.1845,0.1766,0.1754,0.1672,0.1891,0.1891,0.1891,0.1891,0.1271,0.1281,0.1224,0.1217,0.1252,0.1337,0.139,0.1561,0.1826,0.1958,0.2025,0.1991,0.1984,0.1916,0.19,0.1821,0.2073,0.2074,0.2074,0.1208,0.1208,0.1148,0.1161,0.1198,0.1258,0.1291,0.144,0.1857,0.2092,0.2145,0.2137,0.2095,0.2078,0.1968,0.194,0.1806,0,0]},{"header":{"parameterUnit":"m.s-1","parameterCategory":2,"la1":30.2992,"la2":30.254,"lo1":-89.0895,"lo2":-89.0443,"dy":0.0025,"dx":0.0025,"nx":19,"ny":19,"refTime":"2026-04-23T21:00:00:Z","depth":"0","parameterNumber":3,"parameterNumberName":"V-component_of_CURRENTS"},"data":[0,0,0,0.0102,0.0104,0.0137,0.0137,0.026,0.0262,0,0,0,0,0,0,0,0,0,0,0,0.0105,0.0106,0.0102,0.0104,0.0137,0.0137,0.026,0.0262,0,0,0,0,0,0,0,0,0,0,0,0.0104,0.0106,0.0108,0.0104,0.0138,0.0137,0.026,0.0205,0,0,0,0,0,0,0,0,0,0,0.0159,0.0169,0.0105,0.0108,0.0105,0.0138,0.0137,0.0201,0.0209,0.028,0,0.0327,0,0.0313,0.0276,0.0277,0,0,0,0.0066,0.0163,0.0174,0.0108,0.0106,0.0138,0.0112,0.0205,0.0213,0.0291,0.0328,0.0331,0.0315,0.0277,0.0278,0.0505,0.0506,0,0,0.0064,0.0101,0.0168,0.0181,0.0172,0.0111,0.0113,0.0208,0.0244,0.0328,0.0334,0.0317,0.0279,0.028,0.0504,0.0506,0,0,0,0.0085,0.0101,0.0106,0.0177,0.0186,0.0113,0.0115,0.0239,0.0243,0.0335,0.0319,0.028,0.0282,0.0503,0.0505,0.0678,0,0,0,0.0081,0.0114,0.0106,0.0126,0.0185,0.0204,0.0144,0.0236,0.0246,0.0318,0.028,0.0284,0.0502,0.0504,0.0671,0.0683,0,0,0,0.0093,0.0115,0.0135,0.0129,0.0158,0.0202,0.0208,0.0236,0.0239,0.0277,0.0285,0.0502,0.0504,0.0665,0.0674,0.0645,0,0,0,0.0101,0.024,0.0138,0.03,0.0159,0.0295,0.0207,0.0299,0.0349,0.0281,0.0502,0.0505,0.0663,0.0669,0.0642,0.0667,0.0687,0,0,0.0289,0.0264,0.036,0.0271,0.0431,0.0284,0.0449,0.0457,0.0397,0.0468,0.0472,0.0673,0.0673,0.0645,0.08,0.0816,0,0,0,0.0428,0.0475,0.0522,0.0575,0.0619,0.0617,0.0603,0.0584,0.0605,0.0441,0.0671,0.0664,0.0641,0.0649,0.0663,0.0549,0.0515,0.0515,0.0515,0.0694,0.0676,0.0796,0.0785,0.0865,0.0858,0.0866,0.0817,0.0789,0.0805,0.0808,0.09,0.0918,0.0926,0.0813,0.0842,0.0843,0.0843,0.0844,0.0876,0.0892,0.0895,0.0977,0.0985,0.108,0.109,0.1046,0.1027,0.0971,0.0941,0.0835,0.0951,0.0824,0.0855,0.0853,0.0852,0.0851,0.085,0.0927,0.092,0.095,0.1014,0.1105,0.1147,0.1178,0.1155,0.1116,0.1129,0.102,0.1017,0.0891,0.1088,0.1088,0.1088,0.1088,0.1088,0.1088,0.0922,0.0951,0.0984,0.1051,0.1115,0.1161,0.1201,0.1199,0.1173,0.115,0.1149,0.0919,0.097,0.0943,0.1088,0.1088,0.1088,0.1088,0.1088,0.0936,0.0944,0.0991,0.1046,0.1161,0.1214,0.1247,0.1255,0.1236,0.1228,0.1041,0.1144,0.1051,0.104,0.1013,0.1165,0.1165,0.1165,0.1165,0.0941,0.0948,0.1014,0.1102,0.1183,0.1248,0.1309,0.1333,0.1203,0.1095,0.1011,0.1001,0.1003,0.0903,0.0895,0.0862,0.0973,0.0973,0.0972,0.0961,0.0976,0.1028,0.11,0.1217,0.1266,0.1309,0.1368,0.1154,0.095,0.0851,0.0859,0.0828,0.084,0.0667,0.0665,0.0604,0,0]}],[{"header":{"parameterUnit":"m.s-1","parameterCategory":2,"la1":30.2992,"la2":30.254,"lo1":-89.0895,"lo2":-89.0443,"dy":0.0025,"dx":0.0025,"nx":19,"ny":19,"refTime":"2026-04-23T21:00:00:Z","depth":"2","parameterNumber":2,"parameterNumberName":"U-component_of_CURRENTS"},"data":[0,0,0,0.0553,0.0556,0.0631,0.0631,0.071,0.0712,0,0,0,0,0,0,0,0,0,0,0,0.0527,0.0528,0.0553,0.0556,0.0631,0.0631,0.071,0.0712,0,0,0,0,0,0,0,0,0,0,0,0.0526,0.0528,0.053,0.0556,0.0631,0.0631,0.071,0.0648,0,0,0,0,0,0,0,0,0,0,0.0573,0.0575,0.0527,0.053,0.0557,0.0631,0.0631,0.0645,0.0652,0.0684,0,0.0729,0,0.0742,0.072,0.0721,0,0,0,0.0517,0.0569,0.0589,0.053,0.0558,0.0631,0.0586,0.0649,0.0657,0.0694,0.073,0.0733,0.0743,0.0721,0.0722,0.0895,0.0896,0,0,0.0513,0.0532,0.0584,0.0596,0.0622,0.0584,0.0589,0.0653,0.0681,0.073,0.0735,0.0744,0.0722,0.0723,0.0894,0.0895,0,0,0,0.0527,0.053,0.0547,0.0592,0.0619,0.0587,0.0593,0.0677,0.0685,0.0736,0.0745,0.0723,0.0724,0.0893,0.0894,0.1043,0,0,0,0.0523,0.0541,0.0546,0.0557,0.0619,0.0655,0.0616,0.068,0.0688,0.0745,0.0723,0.0725,0.0892,0.0894,0.1036,0.1007,0,0,0,0.0515,0.054,0.0561,0.0558,0.0608,0.0654,0.0664,0.0681,0.0696,0.0721,0.0726,0.0891,0.0893,0.1031,0.1001,0.1084,0,0,0,0.051,0.0611,0.0563,0.0674,0.0608,0.0728,0.0663,0.0736,0.0769,0.0723,0.0892,0.0894,0.1029,0.0997,0.1079,0.0921,0.093,0,0,0.0636,0.0627,0.0689,0.0648,0.0743,0.0712,0.0827,0.0825,0.0807,0.086,0.0864,0.1038,0.1,0.1083,0.1051,0.1055,0,0,0,0.0726,0.0768,0.0795,0.0832,0.0878,0.0891,0.0912,0.0938,0.0987,0.0845,0.1042,0.1011,0.106,0.0955,0.096,0.0905,0.0904,0.0904,0.0904,0.0916,0.0888,0.0967,0.0949,0.1001,0.1032,0.1065,0.1093,0.1105,0.1152,0.1141,0.1298,0.1191,0.1192,0.1196,0.1197,0.1198,0.1198,0.1198,0.1046,0.1033,0.1029,0.1088,0.1077,0.1152,0.1214,0.123,0.1315,0.1278,0.1324,0.1123,0.1205,0.121,0.1208,0.1206,0.1205,0.1204,0.1204,0.1079,0.1047,0.1106,0.1123,0.1173,0.1206,0.1251,0.134,0.1395,0.1438,0.1337,0.1331,0.135,0.1511,0.1511,0.1512,0.1512,0.1512,0.1512,0.1017,0.106,0.1107,0.1156,0.1164,0.1213,0.1311,0.133,0.1392,0.141,0.141,0.1401,0.1391,0.1365,0.1517,0.1516,0.1516,0.1515,0.1515,0.0915,0.0982,0.1041,0.1081,0.1124,0.1131,0.1219,0.1248,0.1327,0.1306,0.1401,0.1402,0.1318,0.131,0.1281,0.1402,0.1402,0.1402,0.1402,0.0835,0.0876,0.0963,0.1018,0.1034,0.1093,0.1046,0.1082,0.1193,0.1263,0.1269,0.1186,0.1192,0.1096,0.1093,0.1057,0.1121,0.1121,0.112,0.0737,0.0812,0.0851,0.0982,0.0994,0.1019,0.0969,0.0914,0.1002,0.1116,0.1291,0.1369,0.1259,0.1265,0.1119,0.1115,0.1057,0,0]},{"header":{"parameterUnit":"m.s-1","parameterCategory":2,"la1":30.2992,"la2":30.254,"lo1":-89.0895,"lo2":-89.0443,"dy":0.0025,"dx":0.0025,"nx":19,"ny":19,"refTime":"2026-04-23T21:00:00:Z","depth":"2","parameterNumber":3,"parameterNumberName":"V-component_of_CURRENTS"},"data":[0,0,0,-0.0101,-0.01,-0.0089,-0.0089,-0.0001,-0.0,0,0,0,0,0,0,0,0,0,0,0,-0.0095,-0.0094,-0.0102,-0.01,-0.0089,-0.0089,-0.0002,-0.0,0,0,0,0,0,0,0,0,0,0,0,-0.0095,-0.0094,-0.0093,-0.01,-0.0089,-0.0089,-0.0002,-0.0035,0,0,0,0,0,0,0,0,0,0,-0.0059,-0.0054,-0.0094,-0.0093,-0.01,-0.0088,-0.0089,-0.0038,-0.0033,0.0023,0,0.0054,0,0.004,0.001,0.001,0,0,0,-0.0127,-0.0058,-0.0048,-0.0092,-0.0099,-0.0088,-0.0102,-0.0036,-0.003,0.003,0.0054,0.0057,0.0042,0.0011,0.0012,-0.0014,-0.0015,0,0,-0.0128,-0.0104,-0.0052,-0.0044,-0.0055,-0.0102,-0.0101,-0.0034,-0.0011,0.0055,0.0058,0.0043,0.0012,0.0013,-0.0013,-0.0014,0,0,0,-0.0112,-0.0104,-0.0099,-0.0046,-0.0043,-0.0101,-0.01,-0.0015,-0.001,0.0059,0.0044,0.0013,0.0015,-0.0011,-0.0013,0.0011,0,0,0,-0.0113,-0.0093,-0.0098,-0.0086,-0.0044,-0.0039,-0.0082,-0.0015,-0.0009,0.0044,0.0013,0.0016,-0.0009,-0.0012,0.0013,-0.0057,0,0,0,-0.0103,-0.0092,-0.0078,-0.0084,-0.0068,-0.0041,-0.0035,-0.0016,-0.0015,0.0011,0.0016,-0.0008,-0.0012,0.0016,-0.0051,0.003,0,0,0,-0.01,-0.0092,-0.0076,-0.0094,-0.0068,-0.0093,-0.0036,-0.0017,0.0005,0.0014,-0.001,-0.0013,0.0017,-0.0048,0.0031,-0.0037,-0.0049,0,0,-0.0106,-0.0091,-0.0118,-0.0105,-0.0168,-0.0099,-0.0161,-0.008,-0.004,-0.0026,-0.0028,0.0012,-0.0051,0.003,-0.023,-0.0235,0,0,0,-0.0136,-0.0135,-0.0152,-0.0184,-0.0195,-0.0197,-0.0143,-0.0118,-0.0086,-0.0037,-0.0063,-0.0107,-0.0053,-0.0094,-0.0101,-0.0029,-0.0028,-0.0028,-0.0028,-0.0139,-0.0189,-0.0225,-0.026,-0.0273,-0.0264,-0.0261,-0.0229,-0.0143,-0.0141,-0.0138,-0.0152,-0.0201,-0.0205,-0.0157,-0.0157,-0.0157,-0.0157,-0.0157,-0.0162,-0.0228,-0.0252,-0.0264,-0.0301,-0.032,-0.0336,-0.0282,-0.0265,-0.0231,-0.0172,-0.0138,-0.021,-0.0157,-0.0157,-0.0157,-0.0157,-0.0157,-0.0157,-0.0215,-0.0257,-0.0197,-0.0214,-0.0273,-0.0298,-0.0283,-0.026,-0.0266,-0.0259,-0.0195,-0.0197,-0.0084,-0.0143,-0.0143,-0.0143,-0.0143,-0.0143,-0.0143,-0.0302,-0.0272,-0.0175,-0.0182,-0.0199,-0.0192,-0.0191,-0.0206,-0.0236,-0.0259,-0.0257,-0.0147,-0.0147,-0.0087,-0.0142,-0.0142,-0.0142,-0.0142,-0.0142,-0.0418,-0.0331,-0.0175,-0.0119,-0.0124,-0.0115,-0.0141,-0.0168,-0.0179,-0.0273,-0.0231,-0.0229,-0.0238,-0.0236,-0.0181,-0.0257,-0.0257,-0.0257,-0.0257,-0.0483,-0.0447,-0.0157,-0.0057,-0.0046,-0.0086,-0.0067,-0.0108,-0.0189,-0.0191,-0.0193,-0.0204,-0.0203,-0.0209,-0.0207,-0.0151,-0.0219,-0.0218,-0.0218,-0.0514,-0.0395,-0.0195,-0.0023,-0.0028,-0.0018,0.0054,0.0038,-0.0068,-0.0206,-0.0079,-0.0275,-0.03,-0.0295,-0.0311,-0.0306,-0.0219,0,0]}],[{"header":{"parameterUnit":"m.s-1","parameterCategory":2,"la1":30.2992,"la2":30.254,"lo1":-89.0895,"lo2":-89.0443,"dy":0.0025,"dx":0.0025,"nx":19,"ny":19,"refTime":"2026-04-23T21:00:00:Z","depth":"4","parameterNumber":2,"parameterNumberName":"U-component_of_CURRENTS"},"data":[0,0,0,0.0426,0.0426,0.0474,0.0474,0.0531,0.0531,0,0,0,0,0,0,0,0,0,0,0,0.0422,0.0422,0.0426,0.0426,0.0474,0.0475,0.0531,0.0531,0,0,0,0,0,0,0,0,0,0,0,0.0422,0.0422,0.0422,0.0426,0.0474,0.0475,0.0531,0.0501,0,0,0,0,0,0,0,0,0,0,0.0457,0.0442,0.0422,0.0422,0.0426,0.0474,0.0475,0.05,0.0503,0.05,0,0.0503,0,0.0502,0.0532,0.0533,0,0,0,0.0449,0.044,0.045,0.0422,0.0426,0.0474,0.0459,0.0502,0.0505,0.0504,0.0503,0.0505,0.0503,0.0533,0.0533,0.0632,0.0633,0,0,0.0446,0.0435,0.0448,0.0452,0.0431,0.0457,0.046,0.0504,0.0505,0.0503,0.0506,0.0504,0.0533,0.0533,0.0631,0.0632,0,0,0,0.0423,0.0433,0.0443,0.045,0.045,0.0458,0.0461,0.0504,0.0507,0.0507,0.0504,0.0533,0.0533,0.063,0.0632,0.059,0,0,0,0.0423,0.0418,0.0442,0.0436,0.0449,0.0476,0.046,0.0504,0.0509,0.0504,0.0533,0.0533,0.0629,0.0631,0.0589,0.0599,0,0,0,0.0421,0.0417,0.0421,0.0435,0.0444,0.0475,0.0482,0.0506,0.0506,0.0533,0.0533,0.0628,0.0631,0.0588,0.0598,0.0642,0,0,0,0.0412,0.041,0.042,0.0426,0.0444,0.0488,0.0481,0.0523,0.055,0.0533,0.0629,0.0631,0.0587,0.0597,0.064,0.0541,0,0,0,0.0404,0.0409,0.0415,0.0424,0.0466,0.0484,0.0529,0.056,0.0584,0.0615,0.0618,0.0589,0.0598,0.0642,0.0671,0,0,0,0,0.0409,0.042,0.0434,0.046,0.0492,0.054,0.0566,0.0577,0.0621,0.0605,0.0646,0.0655,0.0682,0.0622,0.0642,0.0642,0.0641,0.0641,0.0641,0.0373,0.0411,0.0446,0.0501,0.0534,0.0584,0.0616,0.0649,0.0641,0.0669,0.066,0.0725,0.0663,0.0693,0.0692,0.0692,0.0692,0.0692,0.0692,0.0383,0.0414,0.0472,0.052,0.0575,0.0616,0.0664,0.0665,0.0703,0.0689,0.0717,0.0632,0.0689,0.069,0.069,0.0691,0.0691,0.0691,0.0691,0.0377,0.0403,0.0436,0.0515,0.0579,0.0632,0.0688,0.0697,0.071,0.0721,0.0696,0.0734,0.0693,0.0737,0.0737,0.0737,0.0737,0.0737,0.0738,0.0352,0.0397,0.0428,0.0511,0.055,0.0617,0.0697,0.0738,0.0759,0.0687,0.0731,0.0742,0.074,0.0701,0.0741,0.0741,0.074,0.074,0.074,0.0351,0.0356,0.0409,0.0442,0.0532,0.0568,0.0678,0.0732,0.0765,0.0757,0.0678,0.068,0.07,0.0701,0.0659,0.069,0.0688,0.0687,0,0.0327,0.034,0.0389,0.0426,0.0468,0.0537,0.0572,0.0652,0.0669,0.0594,0.076,0.0665,0.0666,0.0686,0.0685,0.0635,0,0,0,0.0311,0.0336,0.0359,0.0403,0.0427,0.0478,0.0573,0.056,0.0643,0.0703,0.066,0.0667,0.0804,0.0753,0.0791,0.0789,0.0728,0,0]},{"header":{"parameterUnit":"m.s-1","parameterCategory":2,"la1":30.2992,"la2":30.254,"lo1":-89.0895,"lo2":-89.0443,"dy":0.0025,"dx":0.0025,"nx":19,"ny":19,"refTime":"2026-04-23T21:00:00:Z","depth":"4","parameterNumber":3,"parameterNumberName":"V-component_of_CURRENTS"},"data":[0,0,0,-0.0191,-0.0193,-0.0275,-0.0275,-0.035,-0.0351,0,0,0,0,0,0,0,0,0,0,0,-0.0178,-0.0179,-0.0191,-0.0193,-0.0275,-0.0275,-0.035,-0.0351,0,0,0,0,0,0,0,0,0,0,0,-0.0177,-0.0179,-0.018,-0.0193,-0.0275,-0.0275,-0.035,-0.0293,0,0,0,0,0,0,0,0,0,0,-0.0216,-0.0227,-0.0178,-0.018,-0.0194,-0.0275,-0.0275,-0.029,-0.0297,-0.0308,0,-0.0345,0,-0.0348,-0.0356,-0.0356,0,0,0,-0.0183,-0.0222,-0.023,-0.0181,-0.0195,-0.0275,-0.0235,-0.0294,-0.0301,-0.0316,-0.0346,-0.0349,-0.0349,-0.0357,-0.0357,-0.043,-0.0431,0,0,-0.0178,-0.02,-0.0226,-0.0235,-0.0248,-0.0233,-0.0238,-0.0298,-0.0327,-0.0346,-0.035,-0.0351,-0.0357,-0.0358,-0.043,-0.043,0,0,0,-0.0172,-0.0197,-0.0204,-0.0232,-0.0249,-0.0235,-0.0241,-0.0324,-0.0324,-0.0351,-0.0352,-0.0358,-0.0359,-0.043,-0.043,-0.047,0,0,0,-0.0169,-0.0194,-0.0203,-0.0217,-0.0249,-0.0295,-0.0266,-0.032,-0.0327,-0.0351,-0.0358,-0.0359,-0.043,-0.043,-0.0469,-0.0403,0,0,0,-0.0168,-0.0193,-0.0209,-0.0218,-0.0255,-0.0294,-0.0298,-0.0322,-0.0327,-0.0357,-0.036,-0.0429,-0.043,-0.0467,-0.0403,-0.0354,0,0,0,-0.0175,-0.0213,-0.0211,-0.0258,-0.0254,-0.0333,-0.0297,-0.0383,-0.0423,-0.0358,-0.043,-0.043,-0.0467,-0.0403,-0.0355,-0.0232,0,0,0,-0.0212,-0.0219,-0.024,-0.0239,-0.0281,-0.0319,-0.0373,-0.0418,-0.0419,-0.0405,-0.0407,-0.0469,-0.0403,-0.0354,-0.0264,0,0,0,0,-0.0243,-0.0237,-0.0271,-0.0283,-0.0353,-0.0382,-0.0444,-0.0448,-0.0462,-0.0444,-0.0468,-0.0423,-0.0391,-0.0325,-0.0433,-0.0433,-0.0432,-0.0432,-0.0432,-0.0256,-0.0247,-0.0268,-0.0279,-0.0342,-0.0428,-0.0451,-0.0449,-0.0507,-0.0515,-0.046,-0.0441,-0.0378,-0.0506,-0.0506,-0.0506,-0.0506,-0.0507,-0.0507,-0.0231,-0.02,-0.021,-0.0233,-0.0283,-0.0344,-0.0392,-0.0438,-0.0426,-0.047,-0.0441,-0.0377,-0.0511,-0.051,-0.0509,-0.0509,-0.0509,-0.0508,-0.0508,-0.0171,-0.0152,-0.0183,-0.0182,-0.0203,-0.0289,-0.0238,-0.0325,-0.0385,-0.0389,-0.0304,-0.0419,-0.0408,-0.0406,-0.0406,-0.0405,-0.0405,-0.0404,-0.0404,-0.0108,-0.0117,-0.012,-0.0132,-0.014,-0.0137,-0.0173,-0.0147,-0.0236,-0.0256,-0.0386,-0.0404,-0.0408,-0.0399,-0.0397,-0.0398,-0.0399,-0.04,-0.04,-0.0023,-0.0051,-0.0037,-0.0048,-0.0035,-0.0007,-0.002,0.0013,0.0034,0.0039,-0.0176,-0.0189,-0.0131,-0.014,-0.012,-0.0035,-0.0033,-0.0031,0,0.0028,0.0022,0.002,0.0028,0.0079,0.007,0.0168,0.0182,0.0089,0.0047,0.0007,-0.0241,-0.025,-0.0191,-0.0195,-0.0173,0,0,0,0.006,0.0058,0.0063,0.0057,0.0102,0.0171,0.019,0.019,0.0084,0.019,0.0011,-0.0,-0.0134,-0.0376,-0.0316,-0.032,-0.03,0,0]}]]